Preview of NWS' New Version of Forecast
This preview is not operational and should not be used for support decisions.

Regional Weather Roundup (RWR)

Issued by National Weather Service (NWS)

                            
000
ASUS46 KPQR 250510
RWROR 

OREGON REGIONAL WEATHER ROUNDUP
NATIONAL WEATHER SERVICE PORTLAND OR
1000 PM PDT SAT AUG 24 2019

NOTE: "FAIR" INDICATES FEW OR NO CLOUDS BELOW 12,000 FEET WITH
NO SIGNIFICANT WEATHER AND/OR OBSTRUCTIONS TO VISIBILITY.

ORZ001>013-250600-
NORTHWEST OREGON

  
CITY           SKY/WX    TMP DP  RH WIND       PRES   REMARKS
ASTORIA        FAIR      62  58  86 NW8       30.06S                  
TILLAMOOK      FAIR      59  55  88 SW3       30.07S                  
NEWPORT        FAIR      59  55  88 N5        30.09R                  
FLORENCE       FAIR      61  55  82 N8        30.04R                  
PORTLAND       FAIR      67  54  63 NW12      30.03R                  
VANCOUVER WA   FAIR      67  53  61 NW7       30.03R                  
SCAPPOOSE      CLOUDY    65  54  67 NW8       30.02R                  
HILLSBORO      FAIR      65  53  65 NW10      30.03R                  
AURORA         FAIR      67  54  63 N8        30.04R                  
MCMINNVILLE    FAIR      66  54  65 NE5       30.03R                  
SALEM          FAIR      67  53  61 NW10      30.02R                  
CORVALLIS      FAIR      66  55  67 NW10      30.02R                  
EUGENE         FAIR      66  57  72 N6        30.01R                  
CRESWELL       MOCLDY    70  59  68 NW5       30.00R                  
$$

ORZ021-028-250600-
SOUTHWEST OREGON

  
CITY           SKY/WX    TMP DP  RH WIND       PRES   REMARKS
NORTH BEND     FAIR      60  58  92 N10       30.07R                  
BROOKINGS      FAIR      57  54  89 CALM      30.01R                  
ROSEBURG       FAIR      73  57  57 N5        30.00R                  
SEXTON SUMMIT  FAIR      62  47  57 NW10      30.10R                  
GRANTS PASS    FAIR      75  50  41 NW6       30.00R                  
MEDFORD        FAIR      78  47  33 N6        29.97R                  
$$

ORZ014>016-041-250600-
COLUMBIA GORGE

  
CITY           SKY/WX    TMP DP  RH WIND       PRES   REMARKS
TROUTDALE      FAIR      68  55  63 W8        30.01R                  
HOOD RIVER     FAIR      70  54  56 W5        29.98S                  
THE DALLES     FAIR      73  53  49 W18       29.93R                  
$$

ORZ029>031-041-044-049-050-061>064-502-503-505>511-250600-
EASTERN OREGON

  
CITY           SKY/WX    TMP DP  RH WIND       PRES   REMARKS
MADRAS         FAIR      61  48  63 N7        30.02R                  
REDMOND        FAIR      66  43  43 N5        30.02R                  
BEND           FAIR      68  45  42 E3        30.03R                  
PRINEVILLE     FAIR      63  41  45 NW8       30.02R                  
KLAMATH FALLS  FAIR      65  41  41 CALM      30.09R                  
LAKEVIEW       FAIR      64  30  27 CALM      30.11R                  
HERMISTON      FAIR      74  51  44 W16G23    29.88R                  
PENDLETON      FAIR      72  48  42 SW14G20   29.92R                  
JOHN DAY       FAIR      70  42  35 NW3       30.02R                  
MEACHAM        FAIR      56  41  57 CALM      30.03R                  
LA GRANDE      FAIR      64  42  44 W6        29.98R                  
BAKER CITY     FAIR      64  43  46 NW9       30.00R                  
BURNS          FAIR      63  32  31 NW7       30.03R                  
ROME             N/A     72  32  23 CALM      29.98R                  
ONTARIO        FAIR      80  40  23 NW13      29.86R                  
$$